2012 NQ

Initial reported observation by Lincoln Laboratory ETS, New Mexico on 2012-07-14.
(Discoverer will be defined when the object is numbered. See this note on how discoverers are determined.)

Orbit

Orbit type: Apollo
Near-Earth Object

Note: WebGL enabled browser required.

epoch2023-02-25.0
epoch JD2460000.5
perihelion date2023-01-06.92654
perihelion JD2459951.42654
argument of perihelion (°)151.20502
ascending node (°)254.94193
inclination (°)11.47750
eccentricity0.7575425
perihelion distance (AU)0.4557851
Tisserand w.r.t. Jupiter3.5
ΔV w.r.t. Earth (km/sec)9.5
semimajor axis (AU)1.8798556
mean anomaly (°)18.76566
mean daily motion (°/day)0.38239930
aphelion distance (AU)3.304
period (years)2.58
P-vector [x]0.68350972
P-vector [y]0.62578458
P-vector [z]0.37577669
Q-vector [x]-0.70419642
Q-vector [y]0.70082848
Q-vector [z]0.11378417
absolute magnitude20.26
phase slope0.15
uncertainty0
referenceMPO 740336
observations used204
oppositions2
arc length (days)3910
first opposition used2012
last opposition used2023
residual rms (arc-secs)0.59
perturbers coarse indicatorM-v
perturbers precise indicator003Ek
first observation date used2012-07-14.0
last observation date used2023-03-29.0
computer nameMPCLINUX
JD of orbit computation2456167.401789
perihelion JD uncertainty (days)7.5696E-03
argument of perihelion uncertainty (°)6.2270E-03
ascending node uncertainty (°)7.9351E-03
inclination uncertainty (°)5.6248E-03
eccentricity uncertainty 1.9218E-04
perihelion distance uncertainty (AU)1.0633E-04
Minimum Orbit Intersection Distances (in AU)
for orbit epoch: 2460000.5, reference: E2023-FL5
Mercury0.14551
Venus0.13717
Earth0.14275
Mars0.15743
Jupiter2.1544
Saturn6.66883
Uranus15.4906
Neptune27.4252

Observations

208 total observations over interval: 2012 07 14.22671 – 2023 03 29.21908
These data are available for download (format description).

Date (UT) J2000 RA J2000 Dec Magn Location Ref
2012 07 14.22671 17 53 24.77 +06 40 22.6 18.6   704 – Lincoln Laboratory ETS, New Mexico MPS 428391
2012 07 14.23743 17 53 20.11 +06 41 07.9 18.9   704 – Lincoln Laboratory ETS, New Mexico MPS 428391
2012 07 14.24809 17 53 15.44 +06 41 52.4 19.0   704 – Lincoln Laboratory ETS, New Mexico MPS 428391
2012 07 14.25873 17 53 10.74 +06 42 36.5 19.2   704 – Lincoln Laboratory ETS, New Mexico MPS 428391
2012 07 14.26939 17 53 06.15 +06 43 21.4 18.9   704 – Lincoln Laboratory ETS, New Mexico MPS 428391
2012 07 14.89792 17 48 34.26 +07 27 48.6   I93 – St Pardon de Conques MPS 428391
2012 07 14.90796 17 48 29.74 +07 28 33.6 19.1 V I93 – St Pardon de Conques MPS 428391
2012 07 14.91801 17 48 25.21 +07 29 17.0 18.9 V I93 – St Pardon de Conques MPS 428391
2012 07 15.06445 17 47 18.99 +07 39 57.8 18.4 V 954 – Teide Observatory MPS 428391
2012 07 15.07362 17 47 14.80 +07 40 36.8 19.0 V 954 – Teide Observatory MPS 428391
2012 07 15.17593 17 46 29.59 +07 48 35.6 19.5 V 807 – Cerro Tololo Observatory, La Serena MPS 428391
2012 07 15.17834 17 46 28.46 +07 48 46.1 19.2 V 807 – Cerro Tololo Observatory, La Serena MPS 428391
2012 07 15.18075 17 46 27.37 +07 48 56.7 18.6 V 807 – Cerro Tololo Observatory, La Serena MPS 428391
2012 07 15.18315 17 46 26.27 +07 49 07.1 19.7 V 807 – Cerro Tololo Observatory, La Serena MPS 428391
2012 07 15.18555 17 46 25.16 +07 49 17.6 19.4 V 807 – Cerro Tololo Observatory, La Serena MPS 428391
2012 07 15.18788 17 46 24.08 +07 49 27.8 19.7 V 807 – Cerro Tololo Observatory, La Serena MPS 428391
2012 07 15.192665 17 46 22.46 +07 49 10.4 19.1 V H21 – Astronomical Research Observatory, Westfield MPS 428391
2012 07 15.195475 17 46 21.15 +07 49 23.0 19.1 V H21 – Astronomical Research Observatory, Westfield MPS 428391
2012 07 15.198285 17 46 19.88 +07 49 35.1 19.2 V H21 – Astronomical Research Observatory, Westfield MPS 428391
2012 07 15.201143 17 46 18.58 +07 49 47.5 19.2 V H21 – Astronomical Research Observatory, Westfield MPS 428391
2012 07 15.22901 17 46 06.23 +07 51 53.4 20.1   704 – Lincoln Laboratory ETS, New Mexico MPS 428391
2012 07 15.23974 17 46 01.40 +07 52 39.2 19.7   704 – Lincoln Laboratory ETS, New Mexico MPS 428391
2012 07 15.25061 17 45 56.43 +07 53 28.2 19.7   704 – Lincoln Laboratory ETS, New Mexico MPS 428391
2012 07 15.26131 17 45 51.41 +07 54 13.8 19.7   704 – Lincoln Laboratory ETS, New Mexico MPS 428391
2012 07 15.84460 17 41 25.01 +08 37 07.8 18.4 R 160 – Castelmartini MPS 428391
2012 07 15.84731 17 41 23.74 +08 37 20.3 18.9 R 160 – Castelmartini MPS 428391
2012 07 15.85001 17 41 22.44 +08 37 32.5 19.1 R 160 – Castelmartini MPS 428391
2012 07 15.85274 17 41 21.13 +08 37 44.7 18.3 R 160 – Castelmartini MPS 428391
2012 07 15.93271 17 40 42.70 +08 43 41.8   118 – Astronomical and Geophysical Observatory, Modra MPS 428391
2012 07 15.93672 17 40 40.83 +08 43 58.3   118 – Astronomical and Geophysical Observatory, Modra MPS 428391
2012 07 15.94041 17 40 39.08 +08 44 15.7   118 – Astronomical and Geophysical Observatory, Modra MPS 428391
2012 07 15.95110 17 40 34.20 +08 45 03.3 19.1 R 204 – Schiaparelli Observatory MPS 428391
2012 07 15.96386 17 40 28.14 +08 46 01.3   204 – Schiaparelli Observatory MPS 428391
2012 07 16.02072 17 40 03.23 +08 50 59.0 19.2 V 807 – Cerro Tololo Observatory, La Serena MPS 428391
2012 07 16.02298 17 40 02.13 +08 51 09.5 19.6 V 807 – Cerro Tololo Observatory, La Serena MPS 428391
2012 07 16.02525 17 40 01.05 +08 51 19.3 19.6 V 807 – Cerro Tololo Observatory, La Serena MPS 428391
2012 07 16.02752 17 39 59.94 +08 51 30.0 19.1 V 807 – Cerro Tololo Observatory, La Serena MPS 428391
2012 07 16.02979 17 39 58.84 +08 51 39.9 19.1 V 807 – Cerro Tololo Observatory, La Serena MPS 428391
2012 07 16.03205 17 39 57.77 +08 51 50.5 19.5 V 807 – Cerro Tololo Observatory, La Serena MPS 428391
2012 07 16.16318 17 38 55.50 +09 01 07.1 19.3   704 – Lincoln Laboratory ETS, New Mexico MPS 428391
2012 07 16.17425 17 38 50.03 +09 01 56.5 19.6   704 – Lincoln Laboratory ETS, New Mexico MPS 428391
2012 07 16.18500 17 38 44.74 +09 02 46.3 19.4   704 – Lincoln Laboratory ETS, New Mexico MPS 428391
2012 07 16.18745 17 38 43.02 +09 02 53.6 19.0 V H21 – Astronomical Research Observatory, Westfield MPS 428391
2012 07 16.19075 17 38 41.42 +09 03 08.8 18.8 V H21 – Astronomical Research Observatory, Westfield MPS 428391
2012 07 16.19491 17 38 39.37 +09 03 27.4 18.8 V H21 – Astronomical Research Observatory, Westfield MPS 428391
2012 07 16.19560 17 38 39.27 +09 03 30.9 18.6 R H36 – Sandlot Observatory, Scranton MPS 428391
2012 07 16.19602 17 38 39.49 +09 03 36.4 19.2   704 – Lincoln Laboratory ETS, New Mexico MPS 428391
2012 07 16.19932 17 38 37.46 +09 03 47.8 18.7 R H36 – Sandlot Observatory, Scranton MPS 428391
2012 07 16.20211 17 38 36.11 +09 04 00.4 18.7 R H36 – Sandlot Observatory, Scranton MPS 428391
2012 07 16.20514 17 38 34.64 +09 04 14.1 18.7 R H36 – Sandlot Observatory, Scranton MPS 428391
2012 07 16.20676 17 38 34.24 +09 04 25.3 19.6   704 – Lincoln Laboratory ETS, New Mexico MPS 428391
2012 07 16.89244 17 33 01.86 +09 56 44.7 18.4 R A24 – New Millennium Observatory, Mozzate MPS 428391
2012 07 16.89347 17 33 01.35 +09 56 49.7 18.6 R A24 – New Millennium Observatory, Mozzate MPS 428391
2012 07 16.89449 17 33 00.78 +09 56 54.7 18.5 R A24 – New Millennium Observatory, Mozzate MPS 428391
2012 07 16.90844 17 32 53.84 +09 57 58.7 18.6 R A24 – New Millennium Observatory, Mozzate MPS 428391
2012 07 16.91093 17 32 52.50 +09 58 10.3 18.1 R B67 – Sternwarte Mirasteilas, Falera MPS 428391
2012 07 16.91536 17 32 50.25 +09 58 30.8 18.0 R B67 – Sternwarte Mirasteilas, Falera MPS 428391
2012 07 16.91979 17 32 48.01 +09 58 51.2 17.7 R B67 – Sternwarte Mirasteilas, Falera MPS 428391
2012 07 16.93994 17 32 37.93 +10 00 25.5 18.6 R A24 – New Millennium Observatory, Mozzate MPS 428391
2012 07 16.94148 17 32 37.09 +10 00 32.0 18.7 R A24 – New Millennium Observatory, Mozzate MPS 428391
2012 07 16.96932 17 32 22.88 +10 02 40.5 18.1 R 160 – Castelmartini MPS 428391
2012 07 16.97211 17 32 21.55 +10 02 55.4 18.8 R 160 – Castelmartini MPS 428391
2012 07 16.97494 17 32 20.13 +10 03 07.7 18.6 R 160 – Castelmartini MPS 428391
2012 07 17.211731 17 30 22.22 +10 21 37.6 19.2 V H21 – Astronomical Research Observatory, Westfield MPS 428391
2012 07 17.213276 17 30 21.44 +10 21 45.1 19.3 V H21 – Astronomical Research Observatory, Westfield MPS 428391
2012 07 17.214841 17 30 20.63 +10 21 52.1 19.2 V H21 – Astronomical Research Observatory, Westfield MPS 428391
2012 07 17.216552 17 30 19.75 +10 22 00.3 19.2 V H21 – Astronomical Research Observatory, Westfield MPS 428391
2012 07 17.218232 17 30 18.88 +10 22 08.3 19.1 V H21 – Astronomical Research Observatory, Westfield MPS 428391
2012 07 17.219703 17 30 18.13 +10 22 15.2 19.2 V H21 – Astronomical Research Observatory, Westfield MPS 428391
2012 07 17.221266 17 30 17.33 +10 22 22.3 19.1 V H21 – Astronomical Research Observatory, Westfield MPS 428391
2012 07 17.88780 17 24 36.80 +11 15 01.8 18.3 R A24 – New Millennium Observatory, Mozzate MPS 430163
2012 07 17.88844 17 24 36.45 +11 15 05.2 18.6 R A24 – New Millennium Observatory, Mozzate MPS 430163
2012 07 17.88921 17 24 36.05 +11 15 09.2 18.3 R A24 – New Millennium Observatory, Mozzate MPS 430163
2012 07 17.88998 17 24 35.65 +11 15 12.8 18.6 R A24 – New Millennium Observatory, Mozzate MPS 430163
2012 07 17.93367 17 24 12.41 +11 18 41.6 18.5 R A24 – New Millennium Observatory, Mozzate MPS 430163
2012 07 17.93444 17 24 11.99 +11 18 44.9 18.2 R A24 – New Millennium Observatory, Mozzate MPS 430163
2012 07 17.93522 17 24 11.48 +11 18 49.9 18.5 R A24 – New Millennium Observatory, Mozzate MPS 430163
2012 07 17.93599 17 24 11.13 +11 18 52.3 18.5 R A24 – New Millennium Observatory, Mozzate MPS 430163
2012 07 17.96706 17 23 54.52 +11 21 21.8 18.7 R 160 – Castelmartini MPS 428391
2012 07 17.96980 17 23 53.04 +11 21 35.1 18.8 R 160 – Castelmartini MPS 428391
2012 07 17.97252 17 23 51.59 +11 21 48.1 18.9 R 160 – Castelmartini MPS 428391
2012 07 18.297308 17 20 59.53 +11 47 56.7 18.7 V H21 – Astronomical Research Observatory, Westfield MPS 428391
